Showing default

SOYUZ MS-29, 100057

Orbit data source: Space-Track

SOYUZ MS-29, 100057 is a payload satellite owned by RKKE (CIS) in LEO that was launched on Tue, 14 Jul 2026 UTC launched from the Tyuratam Missile And Space Complex (TTMTR). Payload-class satellites include a variety of spacecraft equipped with specific instruments for various scientific and technological missions. These include communications satellites like Starlink; space stations such as the ISS; scientific satellites like the Hubble; Earth observation satellites from companies like Planet Labs, Umbra, and HawkEye 360; GPS; miniature CubeSats for education and research; and military/defense satellites.

Loading next visibility...
Identifier
100057, 2026-162A
Orbit
LEO
Country
Flag of CISCIS
Related business
Manufacturer
RKKE
Mission
Operational spacecraft
Bus & Motor
7K-S A48, SA
Mass
7,152 kg wet, 2,900 kg dry
Launch date (UTC)
2026-07-14 (1 month ago)
Launch vehicle
Unknown
Launch site
Tyuratam Missile And Space Complex (TTMTR)
Object type
Payload
Rocket body
Debris
Shape & HBR
CYL + CONE + SPHERE + 2 PAN, 14.5 m
Radar Cross Section
RCS unknown

Expand to show TLE details & history
Last TLE update: 12 hours ago

TLE from 12 hours ago
0 SOYUZ MS-29
1 A0057U 26162A   26228.56710022  .00005115  00000-0  99348-4 0  9991
2 A0057  51.6334   1.2594 0007609  53.1141 307.0544 15.49461657581234
Epoch: 2026-08-16T13:36Z
TLE epoch observation values (Epoch: 2026-08-16T13:36:37.459Z)
Latitude
-0.00005°
Longitude
-167.85849°
Altitude
415.927 km
Speed
7.665 km/s
True Right ascension
00h 05m 02s
True Declination
0° 00' 00"
Sunlit
Object was in full shadow at epoch
Visualization orbit readout
Latitude
Unknown
Longitude
Unknown
Altitude
Unknown
Speed
Unknown
Apparent Right ascension
Unknown
Apparent Declination
Unknown
Sunlit
N/A
Visualization observer readout
Local Sidereal Time
15:56:16
Azimuth
Unknown
Elevation
Unknown
Doppler factor
Unknown
Orbital elements
Apogee altitude
423.981 km
Perigee altitude
413.637 km
Semi-major axis
6,796.946 km
Eccentricity
0.00076
Inclination
51.6334°
RAAN
1.2594°
Arg. of periapsis
53.1141°
True anomaly
306.98477°
Mean anomaly
307.0544°
Eccentric anomaly
307.01959°
Mean motion
3.87322 °/min
Orbital period
92.95 mins
BSTAR
0.000099348
Loading maneuver chart data...
Computing Atmospheric mass density...
Loading historical data...
Loading historical data...
Loading historical data...
Loading historical data...
Loading historical data...
Loading historical data...
Loading historical data...
Other satellites on launch #162 in the year 2026 (2026-07-14 UTC)

Documentation

Showing up to 5 results
|